Regional Weather Roundup
Issued by NWS

Home | Current Version | Previous Version | Graphics & Text | Print | Product List | Glossary On
Versions: 1 2 3 4 5 6 7 8 9 10 11 12 13 14 15 16 17 18 19 20 21 22 23 24 25 26 27
000
ASUS45 KBOI 251810
RWRID

IDAHO REGIONAL WEATHER ROUNDUP
NATIONAL WEATHER SERVICE BOISE ID
1200 PM MDT SAT MAR 25 2017

NOTE: "FAIR" INDICATES FEW OR NO CLOUDS BELOW 12000 FEET
WITH NO SIGNIFICANT WEATHER AND/OR OBSTRUCTIONS TO VISIBILITY

IDZ012-014-251900-
SOUTHWEST IDAHO


CITY           SKY/WX    TMP DP  RH WIND       PRES   REMARKS
BOISE          FAIR      50  35  56 VRB3      30.09S
CALDWELL       FAIR      50  37  61 CALM      30.10S
MOUNTAIN HOME  FAIR      51  37  57 NW12      30.08F
$$

IDZ016-017-251900-
SOUTHCENTRAL IDAHO


CITY           SKY/WX    TMP DP  RH WIND       PRES   REMARKS
BURLEY         FAIR      45  35  68 W10G21    30.03F
JEROME         FAIR      45  38  76 W13       30.06S
TWIN FALLS     FAIR      47  35  63 W17       30.06S
$$

IDZ019>023-251900-
SOUTHEAST IDAHO


CITY           SKY/WX    TMP DP  RH WIND       PRES   REMARKS
IDAHO FALLS    PTSUNNY   43  36  76 SW16      30.02F
POCATELLO      PTSUNNY   43  37  79 SW15      30.05F
REXBURG        CLOUDY    42  34  73 SW12      30.02S
$$

IDZ006-010-011-018-031-032-251900-
CENTRAL IDAHO MOUNTAINS


CITY           SKY/WX    TMP DP  RH WIND       PRES   REMARKS
MCCALL         CLOUDY    35  29  78 S7        30.02F WCI  29
HAILEY         PTSUNNY   41  28  60 NW6       30.03F
STANLEY          N/A     35  25  66 N3        30.04F
SALMON         PTSUNNY   45  27  49 CALM      30.03F
CHALLIS        FAIR      45  26  47 CALM      30.00F
$$

IDZ002-004-006-007-026-251900-
NORTHERN IDAHO


CITY           SKY/WX    TMP DP  RH WIND       PRES   REMARKS
LEWISTON       CLOUDY    49  44  83 NE3       30.08F
LOWELL           N/A     45  40  82 N3        30.11F
COEUR D`ALENE  PTSUNNY   46  36  68 SW16G22   30.05S
MULLAN PASS    SNOW      29  29 100 VRB3      29.97S VSB 1/2
$$




USA.gov is the U.S. government's official web portal to all federal, state and local government web resources and services.